Theta_e
315 315 314 314 314 314 313 305 303 302 304 304 302 302 302 304 305 305 305 306 309 303 305 308 310 311 312 314 313 314 315 314 313 313 313 311 313 311 312 316 317 318 318 319 325
315 315 314 314 314 313 313 307 303 302 302 303 302 302 302 303 306 304 302 303 303 303 307 310 310 311 312 313 314 315 314 313 311 310 311 310 311 310 312 314 316 319 320 318 323
315 315 314 314 314 313 313 310 303 302 302 302 302 302 303 304 308 304 303 303 303 304 306 307 309 311 311 312 312 313 314 310 309 309 308 309 310 308 311 313 312 313 315 321 322
315 315 315 314 314 313 313 312 305 302 301 301 302 304 303 306 312 303 303 304 304 304 305 308 310 310 310 311 310 311 309 310 309 307 307 308 307 308 308 310 308 312 312 320 321
315 315 314 314 314 313 313 310 305 302 301 302 303 304 306 307 304 302 303 304 305 305 307 308 310 311 311 309 310 310 309 308 307 307 307 307 308 308 308 307 309 315 313 319 321
315 314 314 314 313 313 309 305 305 303 302 303 303 305 308 306 302 303 303 304 305 306 307 308 309 310 310 309 311 309 308 308 308 308 307 308 308 307 308 305 310 315 318 320 320
314 313 313 312 313 311 305 305 306 303 302 303 302 306 305 304 302 304 305 304 305 305 308 306 307 310 310 310 307 308 309 308 309 309 309 307 310 308 307 305 308 312 316 319 320
313 312 312 312 307 306 304 305 308 304 304 304 304 307 305 303 304 305 305 307 307 307 306 306 307 308 308 308 308 308 309 313 308 309 308 309 313 308 307 306 307 309 314 317 318
312 312 310 306 305 305 305 304 307 305 304 305 308 309 306 305 305 304 305 306 308 308 309 307 308 310 311 310 313 316 317 312 313 308 309 310 313 311 308 308 309 308 307 311 312
312 311 309 304 304 306 307 306 305 305 305 306 306 311 306 306 305 304 305 306 309 309 311 310 311 313 312 315 317 313 313 313 313 309 307 311 312 312 311 310 309 309 308 306 306
312 311 310 303 303 304 307 309 310 308 305 305 305 306 305 304 304 306 305 307 310 311 314 311 316 313 309 309 309 310 312 312 311 307 306 310 309 308 308 309 308 309 309 307 306
312 308 311 304 304 305 306 306 304 306 306 304 304 305 303 303 307 306 306 309 311 314 312 316 312 307 307 308 308 310 312 312 310 307 304 306 304 308 304 303 303 304 305 306 305
312 306 305 307 304 304 305 304 302 303 309 304 304 304 303 304 305 304 304 308 310 314 312 313 307 305 306 307 310 308 308 307 306 305 306 303 308 305 302 303 303 303 303 303 303
311 307 304 306 308 304 305 302 304 300 312 305 306 305 304 304 306 302 302 305 308 308 308 307 305 305 307 305 305 312 303 303 305 308 311 302 315 305 303 303 302 302 302 301 302
304 304 305 304 305 307 303 304 303 305 325 304 305 303 304 304 303 304 301 306 306 305 310 306 304 305 306 302 302 306 301 302 303 307 305 306 312 306 302 303 301 301 301 301 300
302 301 303 304 305 304 305 305 303 318 321 305 304 304 305 304 303 304 304 303 303 305 304 303 301 301 301 302 301 300 301 301 302 309 320 300 304 308 303 301 300 299 299 299 299
305 303 300 302 305 303 303 307 317 323 307 312 306 304 303 303 302 303 303 302 305 316 311 304 303 301 299 305 303 303 311 328 326 322 315 296 301 307 301 299 299 298 298 298 298
305 302 299 299 299 302 304 316 321 308 312 303 304 303 303 301 303 302 305 305 302 303 306 310 319 305 299 301 302 301 304 312 308 308 306 294 307 305 299 298 298 297 297 296 296
304 302 299 297 298 299 310 316 314 311 305 305 304 309 309 302 301 304 303 304 301 301 308 308 309 299 297 298 299 303 312 297 303 291 303 306 307 301 299 299 297 296 295 295 294
303 304 302 298 298 305 305 309 308 302 304 304 307 302 314 308 305 305 301 301 301 300 299 301 311 299 299 297 297 302 297 310 308 308 307 310 306 305 304 301 297 294 294 293 293
302 312 302 298 301 306 312 306 303 300 302 304 303 306 302 308 301 304 302 301 300 300 298 299 304 306 296 302 307 301 305 301 303 302 306 304 305 304 301 295 294 295 293 293 292
303 310 299 298 305 299 305 304 300 303 302 303 302 302 305 302 303 304 301 301 299 299 301 300 301 306 314 296 296 297 303 302 303 304 301 300 301 299 295 294 293 293 294 293 291
309 307 299 302 311 305 299 301 302 303 303 302 302 301 299 304 305 300 300 300 300 299 301 300 307 307 311 298 296 298 299 299 298 298 301 302 302 294 297 295 294 293 292 292 291
307 308 304 302 301 308 306 305 304 300 302 301 301 300 299 299 297 301 299 299 299 299 299 298 300 306 305 307 299 300 299 298 299 303 301 303 304 300 297 292 291 290 290 292 290
304 306 299 306 310 302 301 302 302 303 300 300 301 301 303 302 299 298 299 298 299 299 299 299 302 298 299 299 296 297 297 299 299 298 300 299 300 301 292 290 289 289 292 290 288
310 310 299 301 299 301 300 301 303 300 301 301 301 300 300 302 300 299 298 297 298 299 299 298 301 293 297 294 293 294 295 296 296 297 297 297 297 289 289 289 289 289 289 288 287
296 296 302 301 301 303 308 303 301 299 299 299 300 300 300 300 299 298 297 296 297 299 300 299 299 298 299 292 292 299 298 297 296 295 295 294 293 289 288 288 287 288 289 287 286
Wind_Speed
14 11 12 12 13 14 15 16 15 14 11 10 8 6 9 14 15 9 14 12 13 15 10 6 1 1 1 3 3 2 3 3 3 2 4 3 2 3 2 2 2 3 6 4 10
11 9 11 13 14 14 16 15 14 13 11 9 7 5 2 1 4 20 16 15 12 12 7 5 3 2 3 2 2 3 3 3 3 3 3 2 3 4 3 3 3 4 5 4 9
9 9 11 12 13 14 15 14 14 13 11 10 7 5 3 1 2 9 20 15 11 8 6 5 3 2 4 3 4 4 4 3 4 5 3 2 1 2 3 5 3 1 1 6 8
9 8 9 11 13 16 15 12 13 12 11 10 7 5 5 1 2 13 20 14 10 8 6 5 2 1 2 2 3 3 4 4 3 5 4 3 5 3 4 4 3 3 2 7 8
7 8 9 11 14 16 13 12 12 11 10 10 7 5 3 8 7 16 17 12 8 7 7 5 3 1 3 4 3 5 3 3 3 5 6 8 6 7 7 1 3 3 2 5 6
6 8 9 11 14 13 13 12 10 10 10 11 11 8 1 10 9 16 14 11 11 9 9 8 6 5 6 4 4 3 3 4 5 6 5 8 7 5 4 5 3 2 1 3 5
8 10 11 12 12 12 12 11 9 9 8 8 6 9 21 8 9 15 12 9 10 10 7 9 7 4 1 3 2 3 1 3 9 9 4 8 8 6 5 3 5 3 3 2 4
10 11 11 11 11 10 12 10 7 10 9 7 8 7 6 9 7 17 14 7 9 7 5 6 6 4 5 2 2 1 2 1 7 10 3 7 4 2 1 4 6 4 4 4 4
13 12 12 13 12 5 13 19 6 5 11 9 6 3 5 8 11 16 11 7 7 4 5 3 4 4 2 3 2 7 4 7 4 6 6 3 11 1 4 6 9 6 5 4 3
13 13 14 14 12 3 3 4 18 10 7 5 14 3 7 8 11 14 10 9 4 6 1 5 4 7 11 8 4 6 4 5 7 8 9 9 13 11 10 7 9 8 4 3 3
13 13 13 14 10 5 2 3 2 5 22 8 5 5 6 15 5 14 13 8 3 5 4 6 9 9 10 8 5 6 6 8 6 6 11 9 16 17 11 8 9 9 6 2 3
12 13 11 10 19 8 10 6 4 3 10 10 9 5 5 10 4 22 19 5 8 6 2 5 8 8 5 6 4 6 4 6 2 3 7 10 19 7 10 9 9 9 10 8 4
10 12 14 6 7 16 15 8 4 3 1 6 5 5 6 10 7 13 14 4 8 8 13 8 5 6 3 9 5 7 5 6 5 13 5 14 6 9 10 13 12 13 11 8 6
9 10 15 3 4 5 5 5 4 3 4 14 9 7 5 5 3 8 10 4 5 2 5 6 5 5 4 5 7 1 5 5 7 8 3 9 0 7 10 12 15 14 14 14 10
12 11 9 11 3 4 2 3 3 1 4 12 7 8 8 7 8 9 6 4 7 5 2 3 6 7 5 3 5 3 5 4 3 3 4 3 2 6 9 11 14 15 15 14 12
11 14 9 4 8 4 3 3 2 6 4 5 6 9 5 7 5 8 5 7 1 2 10 4 1 4 5 5 3 7 4 3 2 1 1 2 4 2 4 6 10 13 15 15 13
9 10 12 8 2 4 3 2 5 6 1 4 4 6 4 6 6 8 5 10 5 4 6 0 3 1 4 4 2 7 3 3 2 2 2 1 4 4 5 8 11 12 14 14 14
9 8 7 11 6 4 2 3 8 1 3 1 3 5 5 9 5 7 3 4 9 4 1 3 2 3 7 4 3 4 2 2 5 4 6 2 5 2 8 11 10 12 12 13 15
8 6 4 13 6 3 2 5 5 4 1 2 2 2 3 2 1 3 5 3 5 8 4 4 1 3 4 2 2 2 0 2 2 1 3 3 4 8 8 6 12 14 14 15 15
6 4 2 14 5 2 5 3 1 1 0 1 1 1 1 3 2 3 2 1 1 3 1 2 4 1 1 1 4 1 2 1 2 3 5 4 4 7 6 2 9 13 12 13 12
4 3 4 10 5 5 4 3 2 1 2 3 1 2 2 1 1 1 0 2 0 2 2 2 0 1 1 4 3 2 1 1 2 2 4 5 3 1 7 4 5 5 9 8 11
2 2 8 7 4 2 2 1 2 2 1 1 2 1 2 1 2 2 2 1 2 1 3 2 2 5 1 3 2 1 2 4 3 2 3 4 8 5 7 2 2 7 9 10 8
1 2 5 5 3 2 1 0 1 3 3 2 2 1 1 1 3 1 2 3 1 1 3 1 1 5 3 2 2 3 4 4 1 2 9 7 5 3 2 5 6 7 9 8 9
2 4 4 5 0 5 5 3 3 2 2 2 0 2 2 0 1 3 2 1 1 1 1 0 3 5 7 3 3 5 7 9 7 5 9 14 15 6 7 9 11 11 9 7 10
4 1 1 2 2 2 1 5 3 4 3 4 1 7 3 2 1 3 3 2 3 3 2 2 5 3 11 7 4 8 14 11 13 14 9 18 12 6 6 7 8 10 9 10 12
1 2 2 1 3 2 2 4 5 1 5 3 4 3 7 4 2 2 3 3 3 3 3 1 2 2 5 4 7 12 22 14 14 16 16 19 20 5 4 6 8 11 8 10 13
2 2 1 1 0 1 2 3 5 5 3 2 4 4 5 5 3 1 3 1 2 2 6 2 1 2 5 5 10 8 7 8 4 5 4 5 4 8 7 10 13 10 9 12 17
Wind_Direction
353 358 358 3 9 9 10 11 11 9 13 14 19 38 84 63 55 59 41 332 323 336 345 303 310 35 143 86 15 294 223 168 113 176 86 24 283 59 21 284 82 44 35 71 136
346 356 359 360 0 7 8 11 9 8 12 13 13 19 343 58 28 48 356 347 341 343 354 356 76 20 89 65 30 316 274 68 43 53 68 41 327 345 284 183 158 144 98 136 153
341 0 0 356 356 358 359 8 7 8 12 10 10 12 11 307 261 11 350 353 349 348 326 328 330 346 71 26 15 21 35 116 62 26 5 8 230 345 288 239 49 7 127 157 171
334 354 355 353 353 353 356 2 4 7 13 11 9 28 45 240 15 344 349 357 360 3 331 326 272 99 94 85 30 121 47 12 37 18 339 357 320 273 269 23 2 308 284 172 185
328 351 351 352 351 353 358 359 359 7 14 14 18 32 17 69 24 338 352 5 3 354 10 354 17 32 100 96 91 64 95 57 34 1 350 330 304 307 277 3 321 5 201 183 194
354 354 352 351 350 0 1 356 3 11 19 35 45 51 12 77 344 347 359 11 20 24 31 21 29 27 80 58 23 68 84 70 32 9 6 335 302 324 84 352 326 319 215 177 188
5 356 354 352 357 5 8 2 12 17 25 27 37 80 64 42 353 359 4 14 17 25 36 22 358 343 336 116 69 96 148 109 33 1 14 337 260 248 23 332 302 263 239 217 198
6 355 356 359 3 24 29 22 29 37 32 41 52 59 70 360 8 11 16 36 28 34 46 9 353 61 18 99 122 322 245 255 45 9 21 336 328 37 263 296 288 268 226 226 207
11 13 10 2 359 55 70 50 40 44 44 41 32 30 53 349 6 358 2 351 346 38 36 11 46 46 22 327 112 25 22 16 107 40 326 316 306 94 245 281 288 272 257 235 235
14 10 6 4 356 353 268 349 51 36 350 10 30 119 36 342 335 339 345 352 350 325 135 31 45 62 35 20 57 7 11 354 356 3 340 301 280 306 303 270 289 290 271 267 277
6 8 11 15 26 40 61 319 189 31 43 50 19 57 3 332 336 8 349 326 337 50 44 35 58 42 20 18 8 342 344 340 14 21 328 300 306 313 329 344 337 306 285 295 300
8 10 14 29 35 57 61 60 33 20 74 42 41 50 7 340 339 12 5 33 38 52 11 74 60 14 355 7 353 3 345 3 294 325 316 324 310 48 37 35 29 18 14 8 333
11 18 7 18 36 54 70 68 55 358 24 41 32 14 343 346 27 358 6 14 46 41 45 66 24 336 345 28 359 44 20 358 319 315 244 323 112 96 75 74 64 43 31 18 11
13 10 17 24 47 30 47 28 36 34 78 357 1 33 346 327 48 2 10 357 53 111 47 64 12 9 36 66 355 296 3 319 318 338 319 13 237 130 111 77 50 38 28 20 5
29 13 21 46 84 47 350 13 14 19 57 341 346 323 341 40 318 36 355 25 53 40 267 44 10 17 47 11 345 7 330 318 327 304 317 30 268 107 156 61 44 39 33 25 15
34 28 21 34 55 52 4 359 334 42 49 339 331 357 17 20 27 328 18 56 65 15 55 81 59 25 350 314 318 325 307 287 242 188 254 53 355 54 39 22 50 34 24 19 13
8 20 33 44 32 346 352 249 40 71 321 332 339 353 343 360 7 14 40 45 35 31 19 171 53 43 356 309 192 353 318 330 271 270 301 11 272 343 46 69 57 26 15 15 12
346 355 25 31 6 356 355 56 66 199 251 2 323 322 33 359 33 351 356 57 51 2 58 19 250 14 355 33 339 14 18 18 297 290 326 179 238 132 96 108 58 34 24 16 12
339 337 6 356 4 35 62 58 178 184 141 214 211 47 358 44 341 358 43 32 17 11 12 341 255 111 42 349 327 54 90 40 111 120 256 260 249 124 121 78 19 24 22 18 13
343 320 338 349 5 59 72 137 171 351 165 227 153 267 282 337 338 29 3 82 65 41 33 63 290 94 135 261 61 323 91 207 176 282 276 209 258 280 184 69 3 17 16 4 6
2 318 331 353 39 46 98 159 206 194 313 322 198 172 230 256 297 251 233 139 148 91 33 107 299 187 176 196 156 149 193 212 316 252 275 298 245 0 107 59 356 340 354 2 3
8 353 340 0 29 38 78 96 284 148 192 296 302 13 257 189 271 289 306 305 63 39 342 59 312 275 257 115 357 277 263 227 249 230 246 300 275 87 104 83 346 352 354 354 355
328 274 352 37 93 50 13 87 203 157 208 201 230 303 44 286 311 275 293 62 80 316 354 64 240 302 221 164 165 225 205 212 0 300 241 258 263 182 106 53 24 358 346 340 339
319 342 341 53 43 138 153 183 191 233 183 185 220 159 170 190 144 316 285 94 168 261 41 262 267 243 264 343 347 255 226 218 208 253 271 241 269 235 346 6 357 343 341 338 341
14 16 307 302 39 85 28 153 147 197 232 196 242 226 181 190 237 242 232 241 192 165 215 252 257 278 273 274 245 260 263 229 214 238 255 273 280 312 10 345 326 310 327 342 337
151 157 140 86 331 149 123 215 209 202 157 215 218 186 186 207 235 258 203 225 274 179 215 176 283 10 277 319 288 269 268 259 235 252 259 271 282 32 323 313 325 321 333 323 324
158 141 275 113 179 230 255 196 202 156 185 6 219 159 221 248 293 352 341 347 331 213 200 229 281 330 269 356 319 269 266 228 188 196 223 235 21 359 340 333 323 312 313 316 330